Date,TemperatureHighF,TemperatureAvgF,TemperatureLowF,DewpointHighF,DewpointAvgF,DewpointLowF,HumidityHigh,HumidityAvg,HumidityLow,PressureMaxIn,PressureMinIn,WindSpeedMaxMPH,WindSpeedAvgMPH,GustSpeedMaxMPH,PrecipitationSumIn
2013-1-1,75,64,54,62,57,51,92,81,63,30.15,30.00,8,2,8,0.00
2013-1-2,78,67,58,67,62,54,92,83,67,30.09,29.96,7,2,7,0.00
2013-1-3,71,65,60,65,62,56,94,89,80,30.16,30.04,10,4,10,0.03
2013-1-4,63,60,58,60,57,54,95,92,87,30.20,30.11,8,5,9,0.12
2013-1-5,70,62,54,60,56,50,88,82,70,30.22,30.13,7,4,7,0.00
2013-1-6,75,66,62,68,62,59,92,88,77,30.20,30.07,7,3,7,0.00
2013-1-7,70,64,59,65,59,54,94,82,69,30.17,30.06,9,3,9,0.09
2013-1-8,76,71,67,71,68,65,95,91,83,30.24,30.10,0,0,0,0.00
2013-1-9,80,73,67,73,70,65,97,90,78,30.35,30.21,0,0,0,0.00
2013-1-10,79,72,66,71,67,-58,96,86,72,30.42,30.27,7,1,7,0.00
2013-1-11,80,71,64,70,66,61,96,84,58,30.39,28.31,7,2,7,0.00
2013-1-12,78,70,62,69,64,59,94,83,59,30.14,30.07,6,2,6,0.00
2013-1-13,79,69,61,68,63,58,94,83,64,30.10,29.99,7,2,7,0.00
2013-1-14,78,69,62,68,64,59,94,83,65,30.19,30.04,7,2,7,0.00
2013-1-15,79,70,63,70,65,60,93,85,70,30.16,30.08,7,2,7,0.00
2013-1-16,81,71,64,68,64,61,93,82,55,30.10,30.01,6,2,6,0.00
2013-1-17,79,67,54,70,60,45,93,80,64,30.05,29.90,12,5,12,0.00
2013-1-18,68,59,47,58,49,37,93,71,63,30.16,29.90,14,8,14,0.00
2013-1-19,71,66,61,62,58,54,89,77,64,30.19,30.08,8,5,8,0.00
2013-1-20,71,65,62,63,58,54,94,81,59,30.11,30.03,9,4,9,0.00
2013-1-21,72,66,62,59,57,52,84,74,56,30.09,30.02,7,2,7,0.00
2013-1-22,63,59,51,52,46,35,78,62,37,30.20,30.03,10,4,10,0.00
2013-1-23,62,54,46,47,42,36,78,64,48,30.25,30.14,8,3,8,0.00
2013-1-24,72,59,48,54,48,42,81,69,47,30.25,30.10,9,2,9,0.00
2013-1-25,72,62,54,58,52,50,88,71,49,30.24,30.18,6,2,6,0.00
2013-1-26,74,62,51,60,54,46,88,75,56,30.25,30.15,6,2,6,0.00
2013-1-27,74,66,57,66,60,54,90,82,69,30.37,30.21,8,3,8,0.00
2013-1-28,77,71,66,66,63,61,87,78,64,30.37,30.31,8,4,8,0.00
2013-1-29,78,72,68,70,67,65,92,83,73,30.31,30.20,8,4,8,0.00
2013-1-30,83,74,67,68,65,62,94,75,51,30.20,29.97,10,4,10,0.00
2013-1-31,73,61,50,66,44,32,84,57,32,30.23,29.97,10,5,10,0.00
2013-2-1,68,54,44,41,35,28,67,50,24,30.24,30.16,7,2,7,0.00
2013-2-2,66,56,45,50,44,37,81,67,52,30.23,30.13,7,2,7,0.00
2013-2-3,68,56,46,52,43,37,86,64,34,30.13,30.03,9,3,9,0.00
2013-2-4,68,57,46,50,44,39,86,64,38,30.08,30.01,7,2,7,0.00
2013-2-5,74,61,52,55,48,44,80,64,39,30.09,29.96,8,2,8,0.00
2013-2-6,72,68,62,65,61,54,84,79,73,30.14,30.04,7,2,7,0.00
2013-2-7,80,71,64,67,63,60,89,77,52,30.13,29.92,6,2,6,0.03
2013-2-8,76,69,62,66,61,57,90,78,54,30.11,29.87,9,4,9,0.00
2013-2-9,70,64,55,58,55,51,89,74,56,30.22,30.06,9,4,9,0.00
2013-2-10,75,68,64,60,57,54,82,68,58,30.26,30.17,9,5,9,0.00
2013-2-11,81,70,60,65,61,56,90,75,52,30.20,30.14,8,3,8,0.00
2013-2-12,84,73,66,68,65,62,91,76,52,30.16,30.03,9,3,9,0.00
2013-2-13,84,72,-5,71,66,-82,93,82,1,30.03,29.89,22,5,22,0.24
2013-2-14,67,64,57,63,59,54,91,84,72,30.06,29.94,7,2,7,0.36
2013-2-15,67,59,54,57,53,51,89,81,68,29.98,29.92,7,3,7,0.00
2013-2-16,68,57,49,52,46,32,87,67,41,29.97,29.81,12,4,12,0.00
2013-2-17,54,46,38,34,24,13,74,45,21,30.19,29.97,10,4,10,0.00
2013-2-18,62,51,38,49,39,25,81,63,51,30.23,30.11,7,2,7,0.00
2013-2-19,77,63,50,58,52,46,87,69,45,30.16,30.05,11,3,11,0.00
2013-2-20,66,64,59,59,53,50,84,70,56,30.14,30.06,8,4,8,0.00
2013-2-21,74,66,57,66,59,51,92,78,62,30.11,30.01,7,2,7,0.00
2013-2-22,82,73,66,71,68,64,95,85,61,30.14,30.07,9,3,9,0.00
2013-2-23,86,77,70,70,67,62,94,74,49,30.09,29.98,10,5,10,0.00
2013-2-24,75,70,67,70,65,63,89,83,71,30.01,29.94,7,2,7,0.00
2013-2-25,84,73,67,73,69,63,93,86,61,29.96,29.89,6,2,6,0.03
2013-2-26,78,73,67,74,68,59,94,86,61,29.90,29.80,12,4,12,0.33
2013-2-27,74,66,59,62,56,48,84,70,46,29.95,29.83,8,4,8,0.00
2013-2-28,73,62,53,53,48,44,81,61,37,29.93,29.81,9,5,9,0.00
2013-3-1,68,59,53,47,41,32,79,54,27,29.93,29.83,8,4,8,0.00
2013-3-2,61,53,45,42,33,23,65,48,24,29.94,29.80,16,6,16,0.00
2013-3-3,54,46,39,34,31,30,75,57,40,29.99,29.80,10,5,10,0.00
2013-3-4,60,49,38,42,34,23,77,59,30,30.09,29.94,8,3,8,0.00
2013-3-5,74,60,46,54,44,39,81,59,31,30.07,29.97,10,4,10,0.00
2013-3-6,66,60,51,61,39,25,88,49,22,30.01,29.87,12,8,12,0.00
2013-3-7,61,53,43,48,41,33,82,65,50,30.14,29.92,8,4,8,0.00
2013-3-8,65,57,46,50,46,42,87,69,46,30.16,30.03,9,3,9,0.00
2013-3-9,70,63,54,56,50,44,80,63,52,30.21,30.06,8,4,8,0.00
2013-3-10,74,66,56,59,56,52,86,72,56,30.19,30.11,11,4,11,0.00
2013-3-11,79,68,58,63,59,53,89,72,51,30.17,29.98,8,3,8,0.00
2013-3-12,75,69,63,68,64,54,91,83,73,29.99,29.89,7,4,7,0.03
2013-3-13,68,60,53,54,44,27,77,58,28,30.15,29.93,23,4,23,0.00
2013-3-14,59,54,48,44,39,32,75,58,48,30.16,30.05,10,5,10,0.00
2013-3-15,67,55,43,45,40,33,84,61,32,30.16,30.05,8,3,8,0.00
2013-3-16,78,62,49,52,45,41,83,58,27,30.14,30.02,7,3,7,0.00
2013-3-17,79,66,53,62,52,42,85,63,38,30.14,30.05,8,3,8,0.00
2013-3-18,82,73,66,65,63,60,88,72,54,30.14,29.97,8,3,8,0.03
2013-3-19,84,73,66,65,63,56,87,72,39,30.08,29.98,8,4,8,0.00
2013-3-20,76,68,60,66,61,55,90,78,64,30.06,29.84,10,3,10,0.09
2013-3-21,70,60,51,56,43,-58,91,60,23,29.95,29.85,25,4,25,0.00
2013-3-22,72,62,50,59,48,41,78,62,42,30.04,29.88,7,3,7,0.00
2013-3-23,85,71,63,74,66,58,92,82,60,30.03,29.85,10,3,10,0.03
2013-3-24,84,75,69,73,69,66,94,83,69,29.95,29.71,13,7,13,0.03
2013-3-25,72,66,58,66,45,26,88,51,19,29.98,29.72,11,6,11,0.00
2013-3-26,62,55,48,39,28,20,52,37,20,30.24,29.90,12,6,12,0.00
2013-3-27,60,52,43,42,35,30,74,54,34,30.31,30.19,8,4,8,0.00
2013-3-28,65,55,44,46,40,32,84,61,32,30.34,30.22,9,3,9,0.00
2013-3-29,70,59,48,50,41,33,83,57,26,30.36,30.26,7,2,7,0.00
2013-3-30,78,64,50,55,49,43,80,61,35,30.35,30.25,8,3,8,0.00
2013-3-31,82,71,62,63,56,48,78,60,34,30.32,30.18,9,4,9,0.00
2013-4-1,86,74,64,65,61,58,82,65,42,30.23,30.11,11,4,11,0.00
2013-4-2,77,71,64,63,59,49,87,69,38,30.31,30.19,9,4,9,0.00
2013-4-3,83,72,64,69,65,59,91,78,59,30.29,30.20,8,3,9,0.18
2013-4-4,79,73,69,73,68,64,95,84,71,30.24,30.02,10,3,10,0.42
2013-4-5,80,68,60,69,62,54,91,84,67,30.08,29.92,11,5,11,0.09
2013-4-6,72,65,57,61,57,52,87,76,66,30.26,30.05,12,7,12,0.09
2013-4-7,79,70,61,64,60,58,92,75,55,30.29,30.16,9,3,9,0.00
2013-4-8,79,71,62,66,63,58,90,78,59,30.33,30.17,9,3,9,0.00
2013-4-9,82,74,67,69,65,60,92,75,51,30.36,30.24,9,4,9,0.00
2013-4-10,82,74,-122,71,67,-100,90,79,63,30.35,30.20,18,4,18,0.00
2013-4-11,87,78,72,73,72,70,93,80,62,30.20,30.05,10,4,10,0.00
2013-4-12,88,80,75,75,72,69,90,77,61,30.10,29.97,11,5,11,0.00
2013-4-13,78,74,69,70,63,51,88,69,41,30.17,30.04,9,4,9,0.00
2013-4-14,82,73,66,74,68,60,97,84,71,30.17,29.99,10,4,10,1.68
2013-4-15,85,76,68,70,66,62,93,74,49,30.23,30.04,7,3,7,0.00
2013-4-16,82,76,70,72,69,68,94,82,63,30.31,30.20,9,4,9,0.00
2013-4-17,82,75,69,72,69,66,93,80,62,30.30,30.21,9,3,9,0.00
2013-4-18,85,78,71,73,70,68,92,78,58,30.22,30.13,9,3,9,0.00
2013-4-19,93,80,74,76,72,69,92,79,47,30.22,30.09,9,4,9,0.24
2013-4-20,75,68,62,71,62,57,91,82,66,30.29,30.16,8,4,8,0.00
2013-4-21,80,72,65,72,67,59,91,84,73,30.28,30.20,8,5,8,0.15
2013-4-22,79,71,68,70,67,64,95,88,73,30.26,30.16,10,5,10,0.06
2013-4-23,76,71,64,66,64,60,93,79,63,30.29,30.16,11,6,11,0.00
2013-4-24,82,68,32,72,49,-58,92,61,1,30.31,30.22,8,3,8,0.00
2013-4-25,85,77,68,76,36,-33,99,33,1,30.36,30.26,7,2,7,0.00
2013-4-26,83,78,72,76,32,-32,99,44,1,30.41,30.31,9,4,9,0.00
2013-4-27,82,78,72,76,30,-31,99,40,1,30.41,30.30,9,4,9,0.00
2013-4-28,84,78,71,76,49,-31,99,56,1,30.32,30.18,9,4,9,0.00
2013-4-29,89,79,71,76,57,-31,99,65,1,30.20,30.07,9,3,9,1.35
2013-4-30,86,77,73,76,25,-31,99,48,1,30.21,30.11,8,2,8,0.00
2013-5-1,85,79,75,76,15,-31,99,37,1,30.22,30.14,8,3,8,0.00
2013-5-2,79,77,74,76,12,-31,99,41,1,30.18,30.03,7,3,7,0.72
2013-5-3,77,75,73,76,75,72,99,99,99,30.04,29.89,17,7,17,1.11
2013-5-4,86,77,73,76,31,-31,99,56,1,29.98,29.85,14,6,14,0.06
2013-5-5,79,74,67,75,60,-2,99,67,5,30.11,29.93,9,5,9,0.00
2013-5-6,79,71,62,72,53,-40,99,60,1,30.15,30.05,8,4,8,0.00
2013-5-7,81,69,56,65,43,-43,99,49,1,30.21,30.08,9,4,9,0.00
2013-5-8,82,72,62,73,60,-34,99,76,1,30.28,30.16,5,2,5,0.00
2013-5-9,83,74,65,76,62,-32,99,74,1,30.31,30.23,7,3,7,0.00
2013-5-10,88,79,69,76,42,-31,99,54,1,30.28,30.14,9,3,9,0.00
2013-5-11,92,82,75,76,11,-31,99,27,1,30.21,30.07,8,3,8,0.09
2013-5-12,90,80,74,76,15,-31,99,34,1,30.17,30.07,8,3,8,0.00
2013-5-13,79,74,63,76,58,-38,99,67,1,30.27,30.13,9,4,9,0.00
2013-5-14,79,71,63,71,56,-98,99,66,1,30.36,30.25,27,3,27,0.00
2013-5-15,82,74,65,76,60,-35,99,71,1,30.36,30.24,8,2,8,0.00
2013-5-16,86,76,67,76,58,-33,99,68,1,30.30,30.18,8,2,8,0.00
2013-5-17,84,78,71,76,17,-31,99,41,1,30.28,30.20,10,3,10,0.00
2013-5-18,86,80,73,76,1,-98,99,28,1,30.30,30.19,20,3,20,0.00
2013-5-19,87,80,68,76,-2,-31,99,26,1,30.26,30.18,11,3,11,1.65
2013-5-20,91,80,74,76,21,-31,99,46,1,30.26,30.16,9,2,9,0.03
2013-5-21,86,78,74,76,24,-31,99,51,1,30.20,30.09,7,2,7,0.03
2013-5-22,86,78,72,76,18,-31,99,46,1,30.15,30.07,7,2,7,0.15
2013-5-23,87,76,72,76,39,-31,99,66,1,30.16,30.07,6,1,6,0.00
2013-5-24,90,80,72,76,35,-31,99,48,1,30.26,30.12,8,4,8,0.00
2013-5-25,86,78,70,76,48,-31,99,52,1,30.38,30.25,11,4,11,0.00
2013-5-26,83,75,66,76,51,-34,99,56,1,30.37,30.28,7,2,7,0.00
2013-5-27,86,77,69,76,48,-33,99,56,1,30.36,30.27,8,4,8,0.00
2013-5-28,89,82,75,76,-14,-31,99,13,1,30.33,30.26,9,5,9,0.00
2013-5-29,93,84,78,-22,-26,-30,1,1,1,30.31,30.24,10,6,10,0.00
2013-5-30,92,85,80,-22,-26,-29,1,1,1,30.29,30.21,11,7,11,0.00
2013-5-31,90,85,80,-23,-26,-29,1,1,1,30.31,30.22,11,7,11,0.00
2013-6-1,91,85,81,-23,-26,-29,1,1,1,30.26,30.17,10,6,10,0.00
2013-6-2,93,85,79,-22,-26,-30,1,1,1,30.20,30.04,9,4,9,0.21
2013-6-3,93,84,78,-22,-26,-30,1,1,1,30.16,30.03,7,3,7,1.47
2013-6-4,92,82,77,76,-24,-31,99,5,1,30.20,30.10,7,2,7,0.21
2013-6-5,89,82,77,76,-27,-31,99,2,1,30.19,30.09,7,1,7,0.66
2013-6-6,87,80,78,-25,-29,-30,1,1,1,30.10,29.62,11,5,11,1.41
2013-6-7,92,85,78,42,-21,-30,19,2,1,29.90,29.70,10,5,10,0.00
2013-6-8,92,84,79,-22,-26,-30,1,1,1,30.04,29.89,10,2,10,0.18
2013-6-9,93,84,78,-22,-27,-30,1,1,1,30.08,29.99,7,2,7,0.24
2013-6-10,94,86,79,-21,-25,-30,1,1,1,30.07,29.97,8,2,8,0.33
2013-6-11,93,86,80,-22,-26,-29,1,1,1,30.05,29.97,7,2,7,0.00
2013-6-12,94,86,78,39,-24,-30,15,1,1,30.05,29.95,6,3,6,0.00
2013-6-13,97,89,81,63,4,-29,33,10,1,30.03,29.86,7,4,7,0.00
2013-6-14,95,87,81,58,-11,-28,30,5,1,30.03,29.76,8,4,8,0.00
2013-6-15,89,86,84,-24,-26,-27,1,1,1,30.03,29.87,9,5,9,0.00
2013-6-16,92,87,84,-22,-25,-27,1,1,1,30.06,29.99,8,4,8,0.00
2013-6-17,96,86,80,-20,-25,-29,1,1,1,30.04,29.93,7,2,7,1.50
2013-6-18,95,86,78,45,-20,-30,18,2,1,30.01,29.90,8,3,8,0.00
2013-6-19,95,87,81,-20,-25,-29,1,1,1,29.98,29.91,8,3,8,0.06
2013-6-20,93,86,81,23,-25,-28,8,1,1,30.03,29.96,8,2,8,0.06
2013-6-21,92,91,90,-22,-23,-23,1,1,1,30.06,30.05,5,4,7,0.00
2013-6-23,92,88,84,-22,-24,-26,1,1,1,30.10,30.03,7,4,7,0.00
2013-6-24,92,87,81,-22,-25,-29,1,1,1,30.15,30.06,9,3,9,0.00
2013-6-25,91,87,80,-22,-25,-29,1,1,1,30.14,30.01,7,2,7,0.00
2013-6-26,94,88,81,-21,-25,-28,1,1,1,30.05,29.97,9,3,9,0.00
2013-6-27,93,86,79,-21,-25,-30,1,1,1,30.02,29.89,7,2,7,0.09
2013-6-28,96,86,81,26,-24,-28,9,1,1,29.95,29.77,9,3,9,0.00
2013-6-29,92,86,81,-22,-25,-28,1,1,1,29.84,29.73,11,4,11,0.00
2013-6-30,93,84,80,-21,-27,-29,1,1,1,29.86,29.77,16,3,16,0.51
2013-7-1,89,83,79,-24,-28,-30,1,1,1,30.00,29.82,12,4,12,0.33
2013-7-2,93,82,79,-21,-28,-30,1,1,1,30.07,29.95,6,2,6,0.33
2013-7-3,92,85,79,-22,-26,-30,1,1,1,30.11,30.01,9,2,9,0.09
2013-7-4,91,86,80,-22,-25,-29,1,1,1,30.14,30.06,11,4,11,0.00
2013-7-5,92,87,81,-22,-25,-28,1,1,1,30.14,30.06,11,4,11,0.00
2013-7-6,91,86,81,-23,-25,-28,1,1,1,30.13,30.03,10,4,10,0.00
2013-7-7,90,86,81,-23,-25,-29,1,1,1,30.11,30.03,9,3,9,0.00
2013-7-8,90,86,82,-23,-25,-28,1,1,1,30.16,30.08,7,3,7,0.00
2013-7-9,89,86,80,-24,-26,-29,1,1,1,30.17,30.05,8,2,8,0.00
2013-7-10,90,86,82,-23,-26,-28,1,1,1,30.07,29.95,8,1,8,0.00
2013-7-11,97,86,81,48,-21,-29,20,2,1,30.00,29.86,0,0,0,0.00
2013-7-12,90,83,79,-23,-27,-30,1,1,1,29.91,29.85,0,0,0,0.33
2013-7-13,90,84,79,-23,-27,-30,1,1,1,29.96,29.87,0,0,0,0.00
2013-7-14,88,83,78,-25,-28,-30,1,1,1,30.07,29.94,0,0,0,0.06
2013-7-15,90,84,32,-23,-27,-70,1,1,1,30.10,30.00,9,3,9,0.15
2013-7-16,90,85,79,-23,-26,-30,1,1,1,30.13,30.07,10,4,10,0.00
2013-7-17,90,86,32,-23,-26,-58,1,1,1,30.13,30.04,8,2,8,0.00
2013-7-18,89,85,80,-24,-26,-29,1,1,1,30.08,30.00,0,0,0,0.00
2013-7-19,94,84,78,-21,-27,-30,1,1,1,30.08,29.97,0,0,0,1.38
2013-7-20,93,82,78,-22,-28,-30,1,1,1,30.06,29.97,0,0,0,0.63
2013-7-21,92,82,77,-22,-28,-31,1,1,1,30.07,29.96,0,0,0,0.09
2013-7-22,92,82,78,-22,-28,-30,1,1,1,30.07,30.00,0,0,0,1.08
2013-7-23,90,82,78,-23,-28,-30,1,1,1,30.03,29.90,0,0,0,0.42
2013-7-24,89,84,79,-24,-27,-30,1,1,1,29.94,29.80,0,0,0,0.00
2013-7-25,92,85,81,-22,-26,-28,1,1,1,29.91,29.80,0,0,0,0.24
2013-7-26,90,85,79,-23,-26,-30,1,1,1,29.96,29.88,0,0,0,0.00
2013-7-27,90,82,-138,46,-10,-100,31,7,1,29.96,29.85,27,0,27,0.00
2013-7-28,80,78,77,45,40,32,31,25,19,30.06,29.94,0,0,0,0.48
2013-7-29,98,84,32,58,30,-58,38,22,1,30.18,30.03,4,0,4,0.00
2013-7-30,88,82,77,51,3,-27,37,14,1,30.17,30.08,7,2,7,0.00
2013-7-31,86,83,82,55,53,51,38,35,32,30.15,30.01,7,2,7,0.03
2013-8-1,85,83,81,55,54,52,39,37,33,30.08,29.96,6,1,6,0.06
2013-8-2,82,82,82,54,54,54,38,38,38,29.99,29.99,0,0,0,0.00
2013-8-4,83,82,81,55,54,53,40,38,37,30.01,29.96,4,1,4,0.03
2013-8-5,84,82,80,55,54,53,40,39,36,30.01,29.91,11,2,11,0.12
2013-8-6,86,82,79,54,53,52,41,38,32,29.97,29.88,7,2,7,0.00
2013-8-7,87,84,82,56,54,52,40,36,31,30.01,29.93,8,3,8,0.00
2013-8-8,88,85,83,56,55,53,39,36,31,30.06,29.97,8,3,8,0.15
2013-8-9,89,85,83,56,55,53,40,36,31,30.08,30.00,9,3,9,0.00
2013-8-10,88,84,82,56,55,53,40,37,31,30.15,30.06,8,3,8,0.00
2013-8-11,88,84,82,57,55,53,40,37,31,30.17,30.09,7,2,7,0.00
2013-8-12,89,84,81,56,54,52,41,37,31,30.14,30.02,7,2,7,0.00
2013-8-13,89,84,81,56,54,52,41,37,31,30.05,29.93,7,3,7,0.00
2013-8-14,85,82,80,55,53,51,40,38,34,29.99,29.89,9,2,9,0.03
2013-8-15,87,82,32,72,58,-61,73,46,1,30.03,29.91,7,2,7,0.00
2013-8-16,99,83,77,77,72,69,82,72,48,30.06,29.96,6,2,6,0.00
2013-8-17,88,81,77,78,74,70,84,79,72,30.11,30.00,8,2,8,0.00
2013-8-18,89,83,77,77,75,72,86,77,67,30.12,30.04,9,3,9,0.00
2013-8-19,89,83,79,78,75,73,86,77,66,30.10,30.01,8,2,8,0.00
2013-8-20,89,83,78,77,75,73,86,77,65,30.12,30.03,8,3,8,0.00
2013-8-21,87,81,78,78,75,73,89,82,67,30.16,30.07,9,3,9,0.06
2013-8-22,86,80,76,78,75,73,92,85,73,30.12,30.01,11,2,11,0.12
2013-8-23,86,79,76,78,75,73,92,87,74,30.04,29.98,7,1,7,0.06
2013-8-24,84,77,74,77,74,72,93,91,78,30.13,30.03,7,1,7,1.11
2013-8-25,83,79,75,76,73,72,93,84,73,30.19,30.10,8,3,8,0.00
2013-8-26,85,79,74,75,73,71,93,83,71,30.15,30.06,10,4,10,0.75
2013-8-27,83,77,72,76,71,67,94,83,66,30.09,30.02,9,2,9,0.09
2013-8-28,84,78,71,72,68,-10,87,74,58,30.07,30.00,36,2,36,0.00
2013-8-29,87,74,-140,75,66,-100,84,74,58,30.07,29.94,37,3,37,0.00
2013-8-30,90,76,32,74,56,-58,85,64,1,30.01,29.92,7,2,7,0.00
2013-8-31,91,80,22,76,71,-65,93,75,1,29.99,29.90,28,3,28,0.60
2013-9-1,76,28,-80,71,-26,-100,94,29,1,30.02,29.95,34,7,34,0.51
2013-9-2,88,65,-86,76,57,-100,87,74,1,30.02,4.72,35,4,35,0.00
2013-9-3,88,64,32,79,27,-58,88,51,1,30.03,29.94,9,2,9,0.00
2013-9-4,87,80,76,77,74,71,86,81,69,30.12,30.00,7,2,7,0.00
2013-9-5,88,80,74,75,72,69,86,78,62,30.13,30.04,7,2,7,0.00
2013-9-6,85,70,32,76,51,-58,94,73,1,30.07,29.97,10,1,10,1.77
2013-9-7,83,77,72,79,72,70,95,85,68,30.03,29.95,7,3,7,0.00
2013-9-8,84,78,73,74,71,68,88,78,66,30.00,29.92,9,3,9,0.00
2013-9-9,84,66,32,72,39,-58,86,60,1,30.04,29.97,8,3,8,0.00
2013-9-10,85,68,32,73,38,-58,83,56,1,30.13,30.01,11,4,11,0.00
2013-9-11,85,54,32,74,0,-58,82,33,1,30.12,30.03,8,4,8,0.00
2013-9-12,81,52,32,77,-2,-58,93,37,1,30.03,29.93,5,1,5,0.39
2013-9-13,85,60,32,75,17,-58,88,44,1,29.95,29.82,3,0,3,0.00
2013-9-14,86,81,76,74,72,71,86,77,64,30.00,29.84,5,1,5,0.00
2013-9-15,86,78,32,76,66,-58,87,75,1,30.11,29.99,8,2,8,0.00
2013-9-16,84,63,32,75,24,-58,87,48,1,30.11,30.00,7,2,7,0.03
2013-9-17,84,80,76,75,73,71,85,79,72,30.11,30.00,10,4,10,0.03
2013-9-18,82,79,75,77,72,68,93,82,68,30.08,29.99,9,3,9,0.84
2013-9-19,82,78,76,76,71,67,91,77,68,30.09,29.98,8,4,8,0.12
2013-9-20,82,77,71,70,68,66,85,74,62,30.05,29.92,7,2,7,0.00
2013-9-21,84,77,71,70,68,66,87,76,60,29.96,29.79,7,2,7,0.00
2013-9-22,86,77,73,74,72,69,93,83,66,29.87,29.75,10,2,10,0.45
2013-9-23,80,76,74,77,74,72,94,93,92,29.98,29.85,3,0,3,0.27
2013-9-24,82,76,71,79,73,69,94,93,88,29.98,29.84,7,2,7,0.51
2013-9-25,81,76,71,74,72,70,94,87,71,29.86,29.77,8,3,8,0.00
2013-9-26,85,78,73,75,71,67,89,81,56,29.88,29.76,11,5,11,0.00
2013-9-27,79,74,71,75,70,67,94,87,76,29.97,29.84,9,4,9,0.45
2013-9-28,80,75,71,76,69,66,94,84,67,30.03,29.91,8,4,8,0.90
2013-9-29,81,76,70,70,68,66,87,78,67,30.03,29.94,8,3,8,0.90
2013-9-30,81,75,69,71,68,65,87,79,69,30.05,29.93,8,3,8,0.00
2013-10-1,81,77,74,70,68,66,82,73,65,30.10,30.02,9,3,9,0.00
2013-10-2,80,75,70,69,66,65,85,75,61,30.09,30.04,7,2,7,0.00
2013-10-3,83,76,70,72,69,65,85,78,65,30.09,29.99,6,2,6,0.00
2013-10-4,83,78,72,72,70,68,87,78,66,30.12,30.01,7,2,7,0.00
2013-10-5,83,78,72,73,70,68,86,78,68,30.07,29.99,7,3,7,0.00
2013-10-6,83,78,74,75,72,70,86,81,71,30.01,29.87,6,2,6,0.00
2013-10-7,83,76,73,74,72,69,94,87,72,29.87,29.75,8,2,8,0.24
2013-10-8,80,75,73,76,72,70,94,91,78,29.93,29.77,9,4,9,0.15
2013-10-9,75,72,68,70,66,64,90,83,76,30.06,29.92,9,6,9,0.00
2013-10-10,77,71,66,67,64,61,88,79,68,30.06,29.99,6,3,6,0.00
2013-10-11,80,72,66,67,64,62,88,77,56,30.05,29.96,6,2,6,0.00
2013-10-12,81,73,68,68,64,60,86,75,52,30.06,29.96,6,2,6,0.00
2013-10-13,80,73,66,67,63,60,83,71,51,30.09,30.02,7,2,7,0.00
2013-10-14,79,73,67,76,68,64,94,85,70,30.08,29.95,8,4,8,0.12
2013-10-15,81,73,68,73,69,64,94,87,74,30.02,29.88,5,2,5,0.21
2013-10-16,80,74,70,76,71,68,95,90,77,29.99,29.90,7,2,7,0.00
2013-10-17,80,75,72,72,70,68,88,84,76,29.96,29.91,5,1,5,0.00
2013-10-18,73,71,70,69,67,66,89,88,86,29.99,29.94,0,0,0,0.00
2013-10-24,71,67,62,58,56,55,79,70,59,30.13,30.07,7,3,7,0.00
2013-10-25,73,67,59,58,55,53,82,67,50,30.24,30.08,6,1,6,0.00
2013-10-26,72,66,59,58,54,51,77,66,57,30.23,30.11,0,0,0,0.00
2013-10-27,71,64,56,58,54,50,82,71,49,30.14,30.04,0,0,0,0.00
2013-10-28,76,67,58,64,58,52,83,75,58,30.23,30.07,0,0,0,0.00
2013-10-29,78,71,32,66,62,-58,86,75,1,30.25,30.14,9,2,9,0.00
2013-10-30,80,74,69,68,66,64,85,77,62,30.28,30.14,7,2,7,0.00
2013-10-31,80,73,68,74,68,65,93,85,72,30.14,29.99,7,2,7,0.12
2013-11-1,85,77,71,71,67,64,87,74,53,30.00,29.87,10,3,10,0.00
2013-11-2,75,68,63,68,64,60,94,88,75,29.96,29.80,8,2,8,0.36
2013-11-3,71,66,57,60,54,49,93,70,46,30.11,29.94,10,5,10,0.00
2013-11-4,76,73,70,64,58,53,76,61,50,30.18,30.09,11,8,11,0.00
2013-11-5,78,75,72,67,64,62,78,70,64,30.19,30.11,12,7,12,0.00
2013-11-6,77,72,68,69,66,64,87,81,71,30.14,30.07,8,3,8,0.09
2013-11-7,76,71,68,68,66,63,89,84,74,30.08,29.97,5,2,5,0.00
2013-11-8,72,69,62,64,60,53,87,75,64,30.14,29.99,11,6,11,0.00
2013-11-9,76,71,67,63,60,58,81,69,60,30.20,30.09,8,4,8,0.00
2013-11-10,76,69,63,67,62,58,87,80,69,30.17,30.09,8,3,8,0.00
2013-11-11,76,71,65,65,63,60,85,78,68,30.16,30.08,8,3,8,0.00
2013-11-12,73,69,65,66,63,58,89,81,71,30.13,30.02,6,2,6,0.00
2013-11-13,66,62,60,58,50,47,77,66,57,30.29,30.07,17,10,17,0.00
2013-11-14,72,68,63,59,53,48,73,61,54,30.26,30.19,9,5,9,0.00
2013-11-15,73,68,66,64,61,58,90,79,71,30.20,30.08,5,1,5,0.15
2013-11-16,74,69,66,70,66,63,91,90,87,30.15,30.06,7,2,7,0.12
2013-11-17,80,74,69,73,68,66,91,84,72,30.12,30.03,6,1,6,0.00
2013-11-18,80,75,71,70,68,67,88,80,65,30.03,29.89,6,2,6,0.00
2013-11-19,73,70,68,68,62,56,87,77,66,29.98,29.86,9,4,9,0.00
2013-11-20,78,74,71,68,66,63,81,76,70,30.15,29.97,8,5,8,0.00
2013-11-21,74,70,68,69,67,66,94,90,77,30.23,30.13,7,3,7,3.15
2013-11-22,75,72,69,73,69,65,95,90,81,30.20,30.10,9,3,9,0.03
2013-11-23,76,71,66,68,65,62,89,83,72,30.11,30.00,5,1,5,0.03
2013-11-24,69,64,62,65,56,49,87,73,59,30.24,30.03,13,7,13,0.00
2013-11-25,71,67,64,61,56,49,77,66,59,30.24,30.11,10,6,10,0.00
2013-11-26,78,73,68,72,67,61,89,82,74,30.11,29.75,6,2,6,0.03
2013-11-27,73,62,44,69,54,36,94,78,60,30.11,29.70,14,7,14,0.66
2013-11-28,60,50,38,52,42,31,82,74,66,30.25,30.06,10,6,10,0.66
2013-11-29,66,59,50,58,52,46,88,78,63,30.28,30.18,13,6,13,0.00
2013-11-30,72,66,60,63,61,57,91,85,69,30.26,30.19,10,6,10,0.00
2013-12-1,69,65,62,64,61,59,90,87,81,30.20,29.98,7,4,7,0.00
2013-12-2,70,57,32,60,38,-58,90,71,1,29.98,29.82,6,2,6,0.00
2013-12-3,72,62,54,62,57,51,88,82,66,29.99,29.85,5,1,5,0.00
2013-12-4,77,68,60,66,62,56,88,82,68,30.11,29.95,6,1,6,0.00
2013-12-5,78,65,32,68,46,-58,89,69,1,30.18,30.09,6,1,6,0.00
2013-12-6,79,71,65,70,65,61,89,83,71,30.20,30.11,7,2,7,0.00
2013-12-7,78,71,66,68,65,62,88,81,68,30.28,30.17,5,1,5,0.00
2013-12-8,78,70,64,69,64,60,89,82,71,30.25,30.18,6,2,6,0.00
2013-12-9,79,71,64,71,66,60,89,83,72,30.22,30.15,6,1,6,0.00
2013-12-10,82,71,64,68,63,59,89,78,54,30.27,30.10,11,4,11,0.06
2013-12-11,75,67,63,68,60,54,85,80,74,30.26,30.19,8,4,8,0.00
2013-12-12,64,61,58,59,49,40,86,65,44,30.29,30.19,11,6,11,0.00
2013-12-13,69,60,50,58,51,43,81,71,57,30.22,30.11,7,2,7,0.00
2013-12-14,77,70,64,69,65,56,93,82,75,30.11,29.95,8,3,8,0.00
2013-12-15,72,65,56,70,63,53,95,93,89,30.11,29.88,10,4,10,0.54
2013-12-16,57,52,47,53,46,42,89,78,63,30.19,30.06,8,4,8,0.00
2013-12-17,63,55,47,52,48,42,85,77,63,30.16,30.07,7,2,7,0.00
2013-12-18,61,54,47,48,45,41,86,73,57,30.22,30.09,9,2,9,0.00
2013-12-19,68,57,48,58,51,42,85,80,70,30.21,30.11,6,1,6,0.00
2013-12-20,72,63,55,68,59,51,93,87,81,30.20,30.10,7,2,7,0.00
2013-12-21,76,69,61,69,64,58,89,85,78,30.17,30.09,7,2,7,0.00
2013-12-22,78,73,68,70,68,65,89,84,75,30.22,30.13,7,2,7,0.00
2013-12-23,80,72,68,72,67,64,92,84,69,30.22,30.13,9,2,9,0.00
2013-12-24,71,60,56,67,53,40,95,78,50,30.27,30.15,13,5,13,0.18
2013-12-25,68,58,48,58,50,40,85,74,62,30.21,30.11,7,3,7,0.00
2013-12-26,65,60,57,60,56,53,89,86,80,30.18,30.08,9,5,9,0.00
2013-12-27,66,64,61,62,60,57,90,86,82,30.21,30.12,8,5,8,0.03
2013-12-28,71,68,64,69,66,62,95,93,90,30.18,29.98,8,4,8,0.06
2013-12-29,74,70,67,70,68,65,95,92,87,29.98,29.85,6,3,6,0.30
2013-12-30,66,59,56,65,56,52,96,91,73,30.16,29.93,23,3,23,0.00
2013-12-31,63,59,56,55,52,49,90,78,63,30.27,30.11,7,3,7,0.00
2014-1-1,64,62,60,62,58,53,95,88,76,30.23,30.03,7,4,7,0.09
2014-1-2,72,66,57,70,64,55,96,95,94,30.03,29.79,12,4,12,0.27